www.pogodaiklimat.ru

Погода и климат >> Архив погоды >> Россия >> Якутия >> Батамай


ПОГОДА в Батамае

  • Прогноз погоды в Батамае
  • Монитор погоды в Батамае
  • Климат города

АРХИВ ПОГОДЫ в Батамае

Время (UTC), дата Ветер
(напр.,м/с)
 
Видим.   Явления Облачность Т
(С)
Тd
(С)
f
(%)
Тe
(С)
Тes
(С)
Комфортность P
(гПа)
Po
(гПа)
Тmin
(С)
Tmax
(С)
R
(мм)
R24
(мм)
S
(см)
03 9.07 штиль 0 20 км дым 10/0
[Ci fib]
+26.7 +18.4 60 +31 +45 душно 1014.4 1005.3
06 9.07 штиль 0 10 км дым 10/0
[Cs]
+32.3 +13.3 32 +33 +44 жарко 1012.7 1003.7
09 9.07 штиль 0 10 км дым 10/0
[Cs]
+28.4 +19.7 59 +34 +38 очень
душно
1011.3 1002.3
12 9.07 СВ 1 4000 м мгла 10/0
[Cs]
+24.1 +19.3 75 +29 +29 душно 1011.0 1001.9 +32.6
15 9.07 С 1 500 м мгла {туман} ?/? +18.7 +16.7 88 +21 +21 комфорт 1010.3 1001.0
18 9.07 СВ 1 500 м мгла {туман} ?/? +16.3 +14.7 90 +17 +17 1010.3 1000.8
21 9.07 СВ 1 500 м мгла {туман} ?/? +17.3 +14.7 85 +18 +18 1010.1 1000.6
00 10.07 штиль 0 500 м мгла {туман} ?/? +21.9 +15.4 67 +26 +26 душно 1009.5 1000.2 +16.3
03 10.07 З 2 2000 м мгла {туман} 10/0
[Cs]
+28.7 +17.0 49 +32 +42 душно 1007.5 998.5
06 10.07 Ю 1 4000 м мгла {туман} 10/0
[Cs]
+30.5 +18.8 50 +36 +36 очень
душно
1005.6 996.6
09 10.07 В 1 4000 м мгла 10/6 600 м
[Cb cap Cs]
+28.3 +21.1 65 +36 +37 очень
душно
1003.7 994.8
12 10.07 В 2 50 км мгла 10/4 1000 м
[Cb cap Ac trans Cs]
+26.0 +19.9 69 +32 +32 очень
душно
1003.3 994.2 +30.9
15 10.07 В 1 4000 м мгла 10/4 600 м
[Cb cap Cs]
+21.3 +17.6 79 +25 +25 комфорт 1003.0 993.8
18 10.07 СВ 1 2000 м мгла 10/3 600 м
[Cb cap Ac trans Cs]
+16.9 +15.9 94 +18 +18 1002.3 992.9
21 10.07 С 1 2000 м мгла 10/0
[Ac trans Cs]
+19.1 +15.7 81 +22 +23 комфорт 1000.9 991.7
00 11.07 ЮВ 4 4000 м гроза без осадков 10/8 600 м
[Cb cap Ac trans Cs]
+22.3 +16.9 71 +27 +27 душно 1003.4 994.2 +15.8
03 11.07 СВ 2 4000 м в посл. час гроза {ливн. осадки} 10/3 600 м
[Cb cap Ac trans Cs]
+22.3 +19.2 83 +28 +32 душно 1002.6 993.4
06 11.07 ЮВ 2 4000 м мгла {гроза, ливн. осадки} 10/3 600 м
[Cb cap Ac trans Cs]
+27.7 +16.5 50 +31 +34 душно 1001.2 992.3
09 11.07 З 2 4000 м мгла 10/0
[Cs]
+26.1 +17.5 59 +30 +33 душно 1000.4 991.3
12 11.07 З 2 10 км мгла 10/0
[Ac trans Cs]
+23.5 +14.4 57 +26 +26 жарко 1000.2 991.1 +27.9 0.6
15 11.07 З 1 4000 м мгла 10/0
[Ac trans Cs]
+18.1 +15.7 86 +19 +19 1000.3 991.1
18 11.07 СВ 1 4000 м мгла 10/0
[Ac trans Cs]
+13.6 +12.9 96 +14 +14 1000.2 990.8
21 11.07 С 1 500 м мгла {туман} ?/? +15.0 +14.5 97 +15 +15 1000.4 991.0
00 12.07 штиль 0 500 м мгла {туман} ?/? +20.1 +18.3 89 +23 +23 комфорт 1000.2 991.0 +13.6
03 12.07 штиль 0 4000 м мгла 8/0
[Ac trans Ci fib]
+23.3 +19.4 79 +30 +41 очень
душно
999.9 990.8
06 12.07 З 3 20 км дым 5/3 600 м
[Cb cap Ac trans Ci fib]
+25.2 +18.4 66 +30 +35 душно 998.8 989.7
09 12.07 З 4 50 км 10/0
[Ac trans Ci fib]
+24.2 +13.4 51 +26 +28 жарко 998.8 989.7
12 12.07 З 3 20 км дым 10/0
[Ac trans Ci fib]
+21.6 +12.9 58 +24 +24 комфорт 999.2 990.0 +25.3
15 12.07 З 4 20 км дым 10/3 600 м
[Cb cap Ac trans Ci fib]
+17.9 +9.3 57 +18 +18 999.4 990.2
18 12.07 З 2 50 км 10/0
[Ci fib]
+15.4 +6.9 57 +15 +15 999.8 990.4
21 12.07 З 3 50 км 5/0
[Ac trans Ci fib]
+14.4 +7.8 65 +14 +15 1000.2 990.8
00 13.07 З 3 10 км дым 4/0
[Ac trans Ci fib]
+18.1 +8.2 52 +18 +24 1000.0 990.8 +14.4
03 13.07 З 3 20 км дым 10/0
[Cs]
+22.1 +10.5 48 +24 +32 комфорт 999.9 990.7
06 13.07 ЮЗ 3 20 км дым 10/0
[Cs]
+23.5 +12.3 49 +25 +32 комфорт 999.7 990.6
09 13.07 З 2 20 км дым 10/0
[Ac trans Cs]
+23.3 +13.5 54 +27 +29 душно 999.5 990.4
12 13.07 ЮЗ 2 20 км дым 10/0
[Ac trans Cs]
+21.9 +15.2 66 +25 +26 комфорт 1000.0 990.8 +24.0
15 13.07 З 1 4000 м мгла 10/0
[Cs]
+18.7 +13.0 69 +21 +21 комфорт 1000.0 990.8
18 13.07 С 1 4000 м мгла 10/0
[Cs]
+12.6 +9.2 80 +13 +13 1000.8 991.4
21 13.07 СВ 1 2000 м мгла 10/0
[Cs]
+11.8 +9.0 83 +12 +13 1001.6 992.1
00 14.07 штиль 0 2000 м мгла 10/0
[Cs]
+17.7 +12.3 71 +18 +26 1001.7 992.5 +11.8
03 14.07 штиль 0 2000 м мгла 10/0
[Cs]
+20.9 +13.6 63 +23 +36 комфорт 1001.7 992.5
06 14.07 З 2 2000 м мгла 10/0
[Ac trans Cs]
+22.1 +13.1 57 +25 +31 комфорт 1001.7 992.5
09 14.07 З 1 10 км мгла 10/0
[Ac trans Cs]
+22.0 +15.9 68 +26 +28 душно 1001.7 992.5
12 14.07 З 1 20 км дым 10/0
[Cs]
+18.5 +14.0 75 +20 +20 1002.2 993.0 +23.0
15 14.07 СВ 1 50 км мгла 10/0
[Cs]
+14.3 +11.1 81 +15 +15 1003.2 993.8
18 14.07 СВ 1 2000 м мгла 10/8 600 м
[Cb cap Cs]
+14.8 +12.6 87 +15 +15 1003.6 994.2
21 14.07 С 1 2000 м мгла 10/0
[Ci fib]
+16.5 +15.1 91 +17 +19 1003.9 994.5
00 15.07 В 2 10 км дым 10/0
[Ci fib]
+23.1 +16.6 67 +28 +34 душно 1003.7 994.6 +12.0
03 15.07 В 3 50 км 10/5 600 м
[Cb cap Ci fib]
+25.9 +17.5 60 +30 +34 душно 1003.5 994.4
06 15.07 ЮВ 3 50 км 10/5 600 м
[Cb cap Ci fib]
+25.3 +17.5 62 +29 +32 душно 1003.2 994.1
09 15.07 ЮВ 3 50 км 10/5 600 м
[Cb cap Ac trans Ci fib]
+23.9 +18.2 70 +28 +29 душно 1003.8 994.7
12 15.07 ЮВ 2 50 км дым 8/3 600 м
[Cb cap Ac trans Ci fib]
+21.9 +18.9 83 +27 +27 душно 1004.4 995.1 +26.3
15 15.07 СВ 1 10 км дым 10/0
[Ac trans Ci fib]
+17.5 +17.3 99 +19 +19 1004.9 995.6
18 15.07 СВ 1 2000 м мгла 10/6
[Cb cap Ac trans]
+15.9 +15.7 99 +17 +17 1005.3 995.8
21 15.07 СВ 1 2000 м мгла 10/8 600 м
[Cb cap Ac trans]
+17.7 +16.9 95 +19 +19 1005.1 995.8
00 16.07 В 1 20 км дым 10/10 600 м
[Cb cap]
+19.1 +17.3 89 +22 +22 комфорт 1005.4 996.1 +15.9

 

Местоположение метеостанции Батамай (Якутия, Россия): широта 63.52 долгота 129.40 высота над уровнем моря 79 м.

В архиве по умолчанию представлена погода в Батамае за последнюю неделю. Архивные данные за месяц целиком и за предыдущие месяцы, начиная с января 2011 года, Вы можете получить, выбрав интересующий диапазон дат из раскрывающегося списка и нажав кнопку "Ввод!".


*Определитесь, кто Вы:
робот инопланетянин человек

Внимание! Время в таблицах - всемирное. Для получения местного времени необходимо прибавить поправку, которая в Батамае равна 9 ч.

Смотрите также архив погоды в соседних городах и на ближайших метеорологических станциях:

Погода в Сеген-Кюели (Якутия, Россия) (69 км)
Погода в Намцах (Якутия, Россия) (90 км)
Погода в Сангаре (Якутия, Россия) (109 км)
Погода в Верхоянском Перевозе (Якутия, Россия) (131 км)
Погода в Якутске (Якутия, Россия) (169 км)
Погода в Сого-Хае (Якутия, Россия) (169 км)
Погода в Бердигестяхе (Якутия, Россия) (185 км)
Погода в Себян-Кюеле (Якутия, Россия) (200 км)
Погода в Покровске (Якутия, Россия) (227 км)
Погода в Хатырык-Хомо (Якутия, Россия) (231 км)

Пояснения к столбцам:

Ветер - указаны скорость ветра в м/с - средняя за 10 мин, порывы в срок и между сроками (в фигурных скобках) и направление, откуда дует ветер: С - северный, СВ - северо-восточный, В - восточный, ЮВ - юго-восточный, Ю - южный, ЮЗ - юго-западный, З - западный, СЗ - северо-западный.
Видимость - горизонтальная дальность видимости в метрах или километрах. При видимости от 1 до 10 км при отсутствии осадков обычно наблюдается дымка, при ухудшении видимости до 1 км и менее - туман. В сухую погоду видимость может ухудшаться дымом, пылью или мглою.
Явления - указаны атмосферные явления, наблюдавшиеся в срок или в последний час перед сроком; фигурными скобками обозначены явления, наблюдавшиеся между сроками (за 1-3 часа до срока); квадратными скобками обозначены град или гололедные отложения с указанием их диаметра в мм.
Облачность - указаны через наклонную черту общая и нижняя облачность в баллах и высота нижней границы облаков в метрах; квадратными скобками обозначены формы облаков: Ci - перистые, Cs - перисто-слоистые, Cc - перисто-кучевые, Ac - высококучевые, As - высокослоистые, Sc - слоисто-кучевые, Ns - слоисто-дождевые, Cu - кучевые, Cb - кучево-дождевые. Подробнее классификацию облаков см. в Атласе облаков (PDF).
T - Температура воздуха - температура, измеренная на высоте 2 м над землей.
Td - Температура точки росы - температура, при понижении до которой содержащийся в воздухе водяной пар достигнет насыщения.
f - Относительная влажность воздуха - влажноcть воздуха, измеренная на высоте 2 м над землей.
Te - Эффективная температура - температура, которую ощущает одетый по сезону человек в тени. Характеристика душности погоды. При расчете учитывается влияние влажности воздуха и скорости ветра на теплоощущения человека.
Tes - Эффективная температура на солнце - температура, которую ощущает человек, с поправкой на солнечный нагрев. Характеристика знойности погоды. Зависит от высоты солнца над горизонтом, облачности и скорости ветра. Ночью, в пасмурную погоду, а также при ветре 12 м/с и более поправка равна нулю.
P - Атмосферное давление - приведенное к уровню моря атмосферное давление.
Po - Атмосферное давление - измеренное на уровне метеостанции атмосферное давление.
Tmin - Минимальная температура - минимум температуры воздуха на высоте 2 м над землей.
Tmax - Максимальная температура - максимум температуры воздуха на высоте 2 м над землей.
R - Количество осадков - Количество выпавших осадков за период времени, мм. При наведении курсора мыши на число - период времени, за который выпало указанное количество осадков.
R24 - Количество осадков - Количество выпавших осадков за 24 часа, мм.
S - Снежный покров - Высота снежного покрова, см. При наведении курсора мыши на число - состояние снежного покрова и степень покрытия местности в баллах.